{"data":{"norad_id":32258,"intl_designator":"2007-046A","name":"WGS F1 (USA 195)","alt_names":[],"object_type":"PAYLOAD","status":"ACTIVE","operator":null,"country":"US","launch_date":"2007-10-11","launch_site_code":"AFETR","launch_vehicle":null,"mission":null,"orbit_class":"UNKNOWN","rcs_meters":15.8866,"size_class":null,"mass_kg":null,"dimensions":null,"purposes":["comms"],"wikipedia_slug":null,"has_3d_model":false,"image_url":null,"decayed_at":null,"tle_current":{"epoch":"2026-05-25T03:35:33.020736Z","epoch_age_seconds":61487,"freshness":"FRESH","line1":"1 32258U 07046A   26145.14968774 -.00000270  00000+0  00000+0 0  9999","line2":"2 32258   0.0598  94.8033 0000058 329.8651 189.4555  1.00267114 52105","mean_motion":1.00267114,"eccentricity":5.8e-6,"inclination_deg":0.0598,"raan_deg":94.8033,"arg_perigee_deg":329.8651,"mean_anomaly_deg":189.4555,"bstar":0,"rev_number":5210,"period_min":1436.1638054128,"perigee_km":35787.659899847,"apogee_km":35788.149025928,"semimajor_km":42166.041462887,"source":"CELESTRAK","updated_at":"2026-05-25T13:38:13.855168Z"}}}